ゲーレルス第2彗星

78P/Gehrels 2 (1997)

English version
Home page
Total 6,336 html files since Dec. 4, 1995
Updated on January 13, 2003

---------------------------------------------------------------------

・ プロフィール

・ 軌道要素

   The following improved orbital elements by Kenji Muraoka, 
  are from 400 observations 1973 to 1998, including 9 Planets, 
  Moon and 5 minor planets perturbations and non-gravitational 
  effect of style II.  The mean residual is +/- 0.66 arc seconds.

      Epoch  =  1997 Aug. 20.0  TT       JDT = 2450680.5
          T  =  1997 Aug.  7.04307       +/- 0.00061 (m.e.) TT
       Peri. =  192.76856                +/- 0.00023
       Node  =  210.62727                +/- 0.00010   (2000.0)
       Incl. =    6.25771                +/- 0.00001
          q  =    2.0002621              +/- 0.0000026 AU
          e  =    0.4635823              +/- 0.0000007
          a  =    3.7289264              +/- 0.0000018 AU
          n  =    0.13687633             +/- 0.00000010
          P  =    7.201                  +/- 0.0000053  years
         A1  =   -0.587                  +/- 0.055
         A2  =   -0.04547                +/- 0.00164

・ 星図

・ 1996年 5月 7日〜1997年 6月11日
・ 1997年 6月11日〜1998年 8月25日

・ 光度変化

        m1 = 1.3 + 5 logΔ + 31.5 log r  [   ,  0]  (              〜1997年 8月 7日)
        m1 = 8.0 + 5 logΔ + 10.0 log r  [  0,250]  (1997年 8月 7日〜1998年 4月14日)
        m1 = 2.3 + 5 logΔ + 23.0 log r  [250,   ]  (1998年 4月14日〜               )

---------------------------------------------------------------------

軌道要素は村岡健治氏の計算によるものです。
星図は StellaNavigator Ver.2.0 for Windows (アストロアーツ 編著 / アスキー出版局刊) で作成したものです。
光度グラフはComet for Windowsで作成したものです。

---------------------------------------------------------------------

Copyright(C) 1995-2008 Seiichi Yoshida (comet@aerith.net). All rights reserved.